Home   Weather   Nipigon   Past weeks

Flag for Canada Past Weather in Nipigon, Ontario, Canada — Yesterday and Last 2 Weeks

Now
32 °F

Chilly.


Feels Like: 32 °F
Forecast: N/A
Wind: 2 mph from Northwest

Location: Katatota Island

Current Time: Jan 23, 2017 at 6:20:59 pm

Latest Report: Jan 23, 2017 at 5:00 pm


Visibility: N/A

Pressure: 29.79 "Hg

Humidity: 100%

Dew Point: 32 °F

Location of NipigonLocation

Past Weather in Nipigon — Graph

°F

Nipigon Temperature Yesterday

Maximum temperature yesterday: 33 °F (at 12:00 am)
Minimum temperature yesterday: 31 °F (at 6:00 am)
Average temperature yesterday: 32 °F

High & Low Weather Summary for the Past Weeks

 TemperatureHumidityPressure
High36 °F (Jan 19, 2:00 pm)100% (Jan 9, 2:00 am)30.82 "Hg (Jan 9, 2:00 am)
Low-14 °F (Jan 13, 9:00 am)75% (Jan 16, 11:00 am)29.12 "Hg (Jan 10, 8:00 pm)
Average18 °F93%29.91 "Hg
* Reported Jan 8 4:00 pm — Jan 23 4:00 pm, Nipigon, Weather by CustomWeather, © 2017

Note: Actual official high and low records may vary slightly from our data, if they occured in-between our weather recording intervals... More about our weather records

Advertising

Nipigon Weather History for the Previous 24 Hours

Scroll right to see more
 ConditionsComfort  
Time TempWeatherWind HumidityBarometerVisibility
4:00 pm
Mon, Jan 23
32 °FChilly.3 mph99%29.78 "HgN/A
3:00 pm32 °FChilly.7 mph100%29.76 "HgN/A
2:00 pm32 °FChilly.5 mph100%29.77 "HgN/A
1:00 pm31 °FChilly.2 mph100%29.76 "HgN/A
12:00 pm31 °FChilly.2 mph100%29.78 "HgN/A
11:00 am32 °FChilly.5 mph100%29.78 "HgN/A
10:00 am32 °FChilly.5 mph100%29.77 "HgN/A
9:00 am32 °FChilly.3 mph100%29.77 "HgN/A
8:00 am32 °FChilly.2 mph100%29.75 "HgN/A
7:00 am32 °FChilly.2 mph100%29.75 "HgN/A
6:00 am32 °FChilly.3 mph100%29.75 "HgN/A
5:00 am32 °FChilly.3 mph100%29.75 "HgN/A
4:00 am32 °FChilly.3 mph100%29.75 "HgN/A
3:00 am32 °FChilly.5 mph100%29.75 "HgN/A
2:00 am32 °FChilly.5 mph100%29.73 "HgN/A
1:00 am32 °FChilly.6 mph100%29.73 "HgN/A
12:00 am32 °FChilly.5 mph100%29.74 "HgN/A
11:00 pm
Sun, Jan 22
32 °FChilly.7 mph100%29.73 "HgN/A
10:00 pm32 °FChilly.7 mph100%29.73 "HgN/A
9:00 pm32 °FChilly.9 mph100%29.73 "HgN/A
8:00 pm32 °FChilly.8 mph100%29.74 "HgN/A
7:00 pm32 °FChilly.8 mph100%29.74 "HgN/A
6:00 pm32 °FChilly.9 mph100%29.73 "HgN/A
Weather by CustomWeather, © 2017

See weather overviewHow to use our weather pages